Location: Unspecified
(0.0000°N, 0.0000°E)
Time: 18:40:38
(UTC+00:00)

Meteor 1-25 Rocket - Pass Details

Date: 27 January 2013
Orbit: 836 x 893 km, 81.2° (Epoch: 29 September)

Event Time Altitude Azimuth Distance (km) Brightness Sun altitude
Rises 20:05:31 0° 187° (S) 3,482 7.7 -26.6°
Reaches altitude 10° 20:07:57 10° 187° (S) 2,548 7.0 -27.2°
Maximum altitude 20:13:46 83° 274° (W) 903 4.2 -28.6°
Enters shadow 20:14:22 72° 341° (NNW) 935 4.3 -28.7°
